20-01-2023, 00:00:04,    275,    1.1,   -1.4,   0.00,   0.00, 1010.3,   78.3, -999.0
20-01-2023, 00:00:14,    269,    1.4,   -1.3,   0.00,   0.00, 1010.4,   78.2, -999.0
20-01-2023, 00:00:24,    256,    0.6,   -1.3,   0.00,   0.00, 1010.3,   78.2, -999.0
20-01-2023, 00:00:34,    301,    0.8,   -1.3,   0.00,   0.00, 1010.3,   78.2, -999.0
20-01-2023, 00:00:44,    301,    0.4,   -1.4,   0.00,   0.00, 1010.4,   78.1, -999.0
20-01-2023, 00:00:54,    301,    0.7,   -1.3,   0.00,   0.00, 1010.3,   78.1, -999.0
20-01-2023, 00:01:04,    293,    0.9,   -1.4,   0.00,   0.00, 1010.3,   78.2, -999.0
20-01-2023, 00:01:14,    270,    1.5,   -1.3,   0.00,   0.00, 1010.3,   78.2, -999.0
20-01-2023, 00:01:24,    243,    1.1,   -1.3,   0.00,   0.00, 1010.3,   78.2, -999.0
20-01-2023, 00:01:34,    229,    1.7,   -1.3,   0.00,   0.00, 1010.3,   78.3, -999.0
20-01-2023, 00:01:44,    252,    1.3,   -1.3,   0.00,   0.00, 1010.3,   78.3, -999.0
20-01-2023, 00:01:54,    262,    0.3,   -1.4,   0.00,   0.00, 1010.3,   78.2, -999.0
20-01-2023, 00:02:03,    269,    0.5,   -1.3,   0.00,   0.00, 1010.3,   78.2, -999.0
20-01-2023, 00:02:14,    308,    0.0,   -1.4,   0.00,   0.00, 1010.2,   77.8, -999.0
20-01-2023, 00:02:24,    307,    0.0,   -1.4,   0.00,   0.00, 1010.2,   77.9, -999.0
20-01-2023, 00:02:34,    307,    0.0,   -1.5,   0.00,   0.00, 1010.2,   77.7, -999.0
20-01-2023, 00:02:44,    306,    0.0,   -1.4,   0.00,   0.00, 1010.2,   77.7, -999.0
20-01-2023, 00:02:54,    306,    0.0,   -1.4,   0.00,   0.00, 1010.2,   77.7, -999.0
20-01-2023, 00:03:04,    264,    0.2,   -1.4,   0.00,   0.00, 1010.3,   77.9, -999.0
20-01-2023, 00:03:13,    254,    0.6,   -1.3,   0.00,   0.00, 1010.3,   78.1, -999.0
20-01-2023, 00:03:24,    254,    0.5,   -1.3,   0.00,   0.00, 1010.4,   78.2, -999.0
20-01-2023, 00:03:34,    312,    0.3,   -1.4,   0.00,   0.00, 1010.3,   78.0, -999.0
20-01-2023, 00:03:44,    255,    0.9,   -1.3,   0.00,   0.00, 1010.4,   78.2, -999.0
20-01-2023, 00:03:53,    257,    1.3,   -1.3,   0.00,   0.00, 1010.4,   78.1, -999.0
20-01-2023, 00:04:04,    275,    1.8,   -1.3,   0.00,   0.00, 1010.4,   78.1, -999.0
20-01-2023, 00:04:14,    280,    1.8,   -1.3,   0.00,   0.00, 1010.4,   78.0, -999.0
20-01-2023, 00:04:23,    259,    1.0,   -1.3,   0.00,   0.00, 1010.4,   78.0, -999.0
20-01-2023, 00:04:33,    261,    0.5,   -1.3,   0.00,   0.00, 1010.4,   78.0, -999.0
20-01-2023, 00:04:44,    283,    0.4,   -1.3,   0.00,   0.00, 1010.4,   78.0, -999.0
20-01-2023, 00:04:53,    283,    0.1,   -1.4,   0.00,   0.00, 1010.3,   77.8, -999.0
20-01-2023, 00:05:03,    282,    0.3,   -1.3,   0.00,   0.00, 1010.3,   78.0, -999.0
20-01-2023, 00:05:13,    283,    0.1,   -1.5,   0.00,   0.00, 1010.3,   77.8, -999.0
20-01-2023, 00:05:24,    279,    0.0,   -1.3,   0.00,   0.00, 1010.3,   77.9, -999.0
20-01-2023, 00:05:33,    279,    0.2,   -1.4,   0.00,   0.00, 1010.3,   78.1, -999.0
20-01-2023, 00:05:43,    258,    0.9,   -1.3,   0.00,   0.00, 1010.4,   78.1, -999.0
20-01-2023, 00:05:53,    296,    0.1,   -1.4,   0.00,   0.00, 1010.3,   78.0, -999.0
20-01-2023, 00:06:03,    249,    1.4,   -1.4,   0.00,   0.00, 1010.3,   78.1, -999.0
20-01-2023, 00:06:13,    257,    2.1,   -1.3,   0.00,   0.00, 1010.4,   78.2, -999.0
20-01-2023, 00:06:23,    251,    2.4,   -1.3,   0.00,   0.00, 1010.4,   78.3, -999.0
20-01-2023, 00:06:34,    263,    2.8,   -1.3,   0.00,   0.00, 1010.4,   78.2, -999.0
20-01-2023, 00:06:43,    261,    1.3,   -1.3,   0.00,   0.00, 1010.4,   78.3, -999.0
20-01-2023, 00:06:53,    226,    0.2,   -1.3,   0.00,   0.00, 1010.3,   78.2, -999.0
20-01-2023, 00:07:03,    241,    0.1,   -1.3,   0.00,   0.00, 1010.3,   78.2, -999.0
20-01-2023, 00:07:13,    238,    0.0,   -1.3,   0.00,   0.00, 1010.3,   78.2, -999.0
20-01-2023, 00:07:23,    239,    0.0,   -1.4,   0.00,   0.00, 1010.3,   78.1, -999.0
20-01-2023, 00:07:33,    239,    0.1,   -1.4,   0.00,   0.00, 1010.3,   78.2, -999.0
20-01-2023, 00:07:43,    275,    0.6,   -1.4,   0.00,   0.00, 1010.3,   78.2, -999.0
20-01-2023, 00:07:53,    264,    1.7,   -1.3,   0.00,   0.00, 1010.4,   78.4, -999.0
20-01-2023, 00:08:03,    274,    1.7,   -1.3,   0.00,   0.00, 1010.4,   78.3, -999.0
20-01-2023, 00:08:13,    278,    1.5,   -1.3,   0.00,   0.00, 1010.4,   78.3, -999.0
20-01-2023, 00:08:23,    269,    1.3,   -1.4,   0.00,   0.00, 1010.4,   78.2, -999.0
20-01-2023, 00:08:33,    268,    0.4,   -1.4,   0.00,   0.00, 1010.4,   78.0, -999.0
20-01-2023, 00:08:43,    258,    1.7,   -1.3,   0.00,   0.00, 1010.4,   78.3, -999.0
20-01-2023, 00:08:53,    254,    0.9,   -1.4,   0.00,   0.00, 1010.4,   78.2, -999.0
20-01-2023, 00:09:03,    244,    0.3,   -1.4,   0.00,   0.00, 1010.4,   78.2, -999.0
20-01-2023, 00:09:13,    232,    0.1,   -1.4,   0.00,   0.00, 1010.3,   78.0, -999.0
20-01-2023, 00:09:23,    258,    0.4,   -1.4,   0.00,   0.00, 1010.3,   77.9, -999.0
20-01-2023, 00:09:33,    250,    0.3,   -1.4,   0.00,   0.00, 1010.4,   78.2, -999.0
20-01-2023, 00:09:43,    260,    0.9,   -1.4,   0.00,   0.00, 1010.4,   78.3, -999.0
20-01-2023, 00:09:53,    283,    0.5,   -1.4,   0.00,   0.00, 1010.4,   78.3, -999.0
20-01-2023, 00:10:03,    332,    0.0,   -1.4,   0.00,   0.00, 1010.4,   78.1, -999.0
20-01-2023, 00:10:13,    258,    1.1,   -1.4,   0.00,   0.00, 1010.4,   78.2, -999.0
20-01-2023, 00:10:23,    279,    0.0,   -1.5,   0.00,   0.00, 1010.4,   78.2, -999.0
20-01-2023, 00:10:33,    301,    0.0,   -1.5,   0.00,   0.00, 1010.3,   78.0, -999.0
20-01-2023, 00:10:43,    301,    0.0,   -1.5,   0.00,   0.00, 1010.3,   78.1, -999.0
20-01-2023, 00:10:53,    269,    0.4,   -1.4,   0.00,   0.00, 1010.4,   78.3, -999.0
20-01-2023, 00:11:03,    273,    2.0,   -1.4,   0.00,   0.00, 1010.4,   78.4, -999.0
20-01-2023, 00:11:13,    273,    0.7,   -1.4,   0.00,   0.00, 1010.5,   78.4, -999.0
20-01-2023, 00:11:23,    273,    0.1,   -1.4,   0.00,   0.00, 1010.4,   78.2, -999.0
20-01-2023, 00:11:33,    274,    0.3,   -1.4,   0.00,   0.00, 1010.5,   78.3, -999.0
20-01-2023, 00:11:43,    273,    0.0,   -1.5,   0.00,   0.00, 1010.3,   78.0, -999.0
20-01-2023, 00:11:53,    276,    0.9,   -1.4,   0.00,   0.00, 1010.5,   78.5, -999.0
20-01-2023, 00:12:03,    277,    0.4,   -1.4,   0.00,   0.00, 1010.5,   78.4, -999.0
20-01-2023, 00:12:12,    257,    0.4,   -1.4,   0.00,   0.00, 1010.4,   78.4, -999.0
20-01-2023, 00:12:23,    258,    0.1,   -1.4,   0.00,   0.00, 1010.4,   78.2, -999.0
20-01-2023, 00:12:33,    261,    2.1,   -1.4,   0.00,   0.00, 1010.4,   78.4, -999.0
20-01-2023, 00:12:43,    255,    1.2,   -1.4,   0.00,   0.00, 1010.4,   78.5, -999.0
20-01-2023, 00:12:52,    261,    1.7,   -1.4,   0.00,   0.00, 1010.4,   78.5, -999.0
20-01-2023, 00:13:03,    272,    2.6,   -1.4,   0.00,   0.00, 1010.4,   78.5, -999.0
20-01-2023, 00:13:13,    273,    1.8,   -1.5,   0.00,   0.00, 1010.4,   78.5, -999.0
20-01-2023, 00:13:22,    269,    1.0,   -1.4,   0.00,   0.00, 1010.4,   78.5, -999.0
20-01-2023, 00:13:33,    268,    0.5,   -1.3,   0.00,   0.00, 1010.4,   78.5, -999.0
20-01-2023, 00:13:43,    284,    0.9,   -1.5,   0.00,   0.00, 1010.4,   78.5, -999.0
20-01-2023, 00:13:52,    286,    0.0,   -1.6,   0.00,   0.00, 1010.3,   78.3, -999.0
20-01-2023, 00:14:02,    285,    0.0,   -1.5,   0.00,   0.00, 1010.3,   78.4, -999.0
20-01-2023, 00:14:13,    264,    0.0,   -1.4,   0.00,   0.00, 1010.3,   78.4, -999.0
20-01-2023, 00:14:23,    241,    1.0,   -1.4,   0.00,   0.00, 1010.4,   78.8, -999.0
20-01-2023, 00:14:32,    257,    1.9,   -1.4,   0.00,   0.00, 1010.4,   78.8, -999.0
20-01-2023, 00:14:42,    256,    1.8,   -1.4,   0.00,   0.00, 1010.4,   78.8, -999.0
20-01-2023, 00:14:53,    266,    1.0,   -1.3,   0.00,   0.00, 1010.4,   78.8, -999.0
20-01-2023, 00:15:02,    265,    2.9,   -1.3,   0.00,   0.00, 1010.4,   78.8, -999.0
20-01-2023, 00:15:12,    266,    1.7,   -1.4,   0.00,   0.00, 1010.4,   78.7, -999.0
20-01-2023, 00:15:22,    257,    1.3,   -1.4,   0.00,   0.00, 1010.4,   78.6, -999.0
20-01-2023, 00:15:33,    272,    1.4,   -1.4,   0.00,   0.00, 1010.4,   78.7, -999.0
20-01-2023, 00:15:42,    267,    1.3,   -1.4,   0.00,   0.00, 1010.4,   78.6, -999.0
20-01-2023, 00:15:52,    267,    0.3,   -1.4,   0.00,   0.00, 1010.4,   78.6, -999.0
20-01-2023, 00:16:03,    266,    0.0,   -1.5,   0.00,   0.00, 1010.3,   78.3, -999.0
20-01-2023, 00:16:12,    266,    0.0,   -1.5,   0.00,   0.00, 1010.3,   78.5, -999.0
20-01-2023, 00:16:22,    265,    0.0,   -1.5,   0.00,   0.00, 1010.3,   78.4, -999.0
20-01-2023, 00:16:32,    299,    0.0,   -1.4,   0.00,   0.00, 1010.3,   78.5, -999.0
20-01-2023, 00:16:42,    268,    1.0,   -1.4,   0.00,   0.00, 1010.4,   78.8, -999.0
20-01-2023, 00:16:52,    247,    1.1,   -1.4,   0.00,   0.00, 1010.4,   78.8, -999.0
20-01-2023, 00:17:02,    247,    0.1,   -1.4,   0.00,   0.00, 1010.3,   78.6, -999.0
20-01-2023, 00:17:12,    237,    1.2,   -1.4,   0.00,   0.00, 1010.4,   78.8, -999.0
20-01-2023, 00:17:22,    229,    1.0,   -1.3,   0.00,   0.00, 1010.4,   78.8, -999.0
20-01-2023, 00:17:32,    229,    0.5,   -1.3,   0.00,   0.00, 1010.4,   79.0, -999.0
20-01-2023, 00:17:42,    277,    1.6,   -1.4,   0.00,   0.00, 1010.4,   79.0, -999.0
20-01-2023, 00:17:52,    255,    1.1,   -1.3,   0.00,   0.00, 1010.4,   79.1, -999.0
20-01-2023, 00:18:02,    264,    1.2,   -1.3,   0.00,   0.00, 1010.4,   78.9, -999.0
20-01-2023, 00:18:12,    242,    0.6,   -1.3,   0.00,   0.00, 1010.4,   78.8, -999.0
20-01-2023, 00:18:22,    241,    0.0,   -1.4,   0.00,   0.00, 1010.3,   78.4, -999.0
20-01-2023, 00:18:32,    243,    0.0,   -1.5,   0.00,   0.00, 1010.4,   78.5, -999.0
20-01-2023, 00:18:42,    239,    0.8,   -1.3,   0.00,   0.00, 1010.4,   78.8, -999.0
20-01-2023, 00:18:52,    266,    1.6,   -1.3,   0.00,   0.00, 1010.4,   78.6, -999.0
20-01-2023, 00:19:02,    253,    0.8,   -1.3,   0.00,   0.00, 1010.4,   78.7, -999.0
20-01-2023, 00:19:12,    291,    1.1,   -1.3,   0.00,   0.00, 1010.4,   78.7, -999.0
20-01-2023, 00:19:22,    292,    0.4,   -1.4,   0.00,   0.00, 1010.3,   78.4, -999.0
20-01-2023, 00:19:32,    292,    0.0,   -1.5,   0.00,   0.00, 1010.3,   78.3, -999.0
20-01-2023, 00:19:42,    274,    0.0,   -1.4,   0.00,   0.00, 1010.3,   78.3, -999.0
20-01-2023, 00:19:52,    235,    0.5,   -1.5,   0.00,   0.00, 1010.3,   78.4, -999.0
20-01-2023, 00:20:02,    248,    0.3,   -1.3,   0.00,   0.00, 1010.4,   78.5, -999.0
20-01-2023, 00:20:12,    228,    0.3,   -1.3,   0.00,   0.00, 1010.4,   78.7, -999.0
20-01-2023, 00:20:22,    255,    0.9,   -1.3,   0.00,   0.00, 1010.4,   78.7, -999.0
20-01-2023, 00:20:32,    287,    1.8,   -1.3,   0.00,   0.00, 1010.4,   78.8, -999.0
20-01-2023, 00:20:42,    262,    0.4,   -1.4,   0.00,   0.00, 1010.4,   78.5, -999.0
20-01-2023, 00:20:52,    261,    0.1,   -1.3,   0.00,   0.00, 1010.4,   78.6, -999.0
20-01-2023, 00:21:02,    261,    0.0,   -1.3,   0.00,   0.00, 1010.3,   78.3, -999.0
20-01-2023, 00:21:12,    261,    0.0,   -1.4,   0.00,   0.00, 1010.3,   78.3, -999.0
20-01-2023, 00:21:22,    263,    0.0,   -1.4,   0.00,   0.00, 1010.3,   78.3, -999.0
20-01-2023, 00:21:32,    235,    0.0,   -1.4,   0.00,   0.00, 1010.3,   78.3, -999.0
20-01-2023, 00:21:42,    262,    0.8,   -1.3,   0.00,   0.00, 1010.4,   78.6, -999.0
20-01-2023, 00:21:52,    261,    0.0,   -1.4,   0.00,   0.00, 1010.3,   78.3, -999.0
20-01-2023, 00:22:02,    262,    0.0,   -1.5,   0.00,   0.00, 1010.3,   78.2, -999.0
20-01-2023, 00:22:12,    262,    0.0,   -1.5,   0.00,   0.00, 1010.3,   78.3, -999.0
20-01-2023, 00:22:22,    261,    0.0,   -1.4,   0.00,   0.00, 1010.3,   78.2, -999.0
20-01-2023, 00:22:32,    261,    0.0,   -1.4,   0.00,   0.00, 1010.3,   78.3, -999.0
20-01-2023, 00:22:42,    250,    0.4,   -1.4,   0.00,   0.00, 1010.3,   78.5, -999.0
20-01-2023, 00:22:51,    250,    0.7,   -1.3,   0.00,   0.00, 1010.4,   78.7, -999.0
20-01-2023, 00:23:02,    286,    1.0,   -1.3,   0.00,   0.00, 1010.4,   78.6, -999.0
20-01-2023, 00:23:12,    270,    0.7,   -1.3,   0.00,   0.00, 1010.4,   78.4, -999.0
20-01-2023, 00:23:22,    237,    2.2,   -1.3,   0.00,   0.00, 1010.4,   78.4, -999.0
20-01-2023, 00:23:31,    239,    1.7,   -1.4,   0.00,   0.00, 1010.4,   78.4, -999.0
20-01-2023, 00:23:42,    238,    1.1,   -1.3,   0.00,   0.00, 1010.5,   78.4, -999.0
20-01-2023, 00:23:52,    239,    0.6,   -1.4,   0.00,   0.00, 1010.4,   78.4, -999.0
20-01-2023, 00:24:01,    239,    0.1,   -1.3,   0.00,   0.00, 1010.4,   78.3, -999.0
20-01-2023, 00:24:12,    239,    0.0,   -1.3,   0.00,   0.00, 1010.3,   78.1, -999.0
20-01-2023, 00:24:22,    241,    0.0,   -1.4,   0.00,   0.00, 1010.3,   78.0, -999.0
20-01-2023, 00:24:31,    240,    0.0,   -1.4,   0.00,   0.00, 1010.4,   78.0, -999.0
20-01-2023, 00:24:41,    240,    0.0,   -1.4,   0.00,   0.00, 1010.3,   77.9, -999.0
20-01-2023, 00:24:51,    240,    0.0,   -1.4,   0.00,   0.00, 1010.3,   77.9, -999.0
20-01-2023, 00:25:02,    349,    0.3,   -1.3,   0.00,   0.00, 1010.4,   78.3, -999.0
20-01-2023, 00:25:11,    350,    0.0,   -1.3,   0.00,   0.00, 1010.3,   78.0, -999.0
20-01-2023, 00:25:21,    349,    0.0,   -1.4,   0.00,   0.00, 1010.3,   77.9, -999.0
20-01-2023, 00:25:32,    260,    0.6,   -1.4,   0.00,   0.00, 1010.5,   78.2, -999.0
20-01-2023, 00:25:41,    260,    2.8,   -1.3,   0.00,   0.00, 1010.5,   78.3, -999.0
20-01-2023, 00:25:51,    321,    1.3,   -1.3,   0.00,   0.00, 1010.5,   78.2, -999.0
20-01-2023, 00:26:01,    277,    1.2,   -1.3,   0.00,   0.00, 1010.6,   78.1, -999.0
20-01-2023, 00:26:11,    249,    1.7,   -1.3,   0.00,   0.00, 1010.5,   78.2, -999.0
20-01-2023, 00:26:21,    249,    1.3,   -1.3,   0.00,   0.00, 1010.5,   78.1, -999.0
20-01-2023, 00:26:31,    267,    0.7,   -1.3,   0.00,   0.00, 1010.5,   78.1, -999.0
20-01-2023, 00:26:41,    259,    0.0,   -1.4,   0.00,   0.00, 1010.4,   77.9, -999.0
20-01-2023, 00:26:51,    251,    0.3,   -1.3,   0.00,   0.00, 1010.5,   78.2, -999.0
20-01-2023, 00:27:01,    251,    0.4,   -1.3,   0.00,   0.00, 1010.5,   78.2, -999.0
20-01-2023, 00:27:11,    252,    0.0,   -1.4,   0.00,   0.00, 1010.4,   77.8, -999.0
20-01-2023, 00:27:21,    252,    0.0,   -1.4,   0.00,   0.00, 1010.4,   77.7, -999.0
20-01-2023, 00:27:31,    251,    0.0,   -1.4,   0.00,   0.00, 1010.4,   77.7, -999.0
20-01-2023, 00:27:41,    254,    0.0,   -1.4,   0.00,   0.00, 1010.4,   77.9, -999.0
20-01-2023, 00:27:51,    275,    1.1,   -1.3,   0.00,   0.00, 1010.6,   78.1, -999.0
20-01-2023, 00:28:01,    261,    0.9,   -1.2,   0.00,   0.00, 1010.6,   78.0, -999.0
20-01-2023, 00:28:11,    275,    1.7,   -1.3,   0.00,   0.00, 1010.5,   78.1, -999.0
20-01-2023, 00:28:21,    272,    0.8,   -1.3,   0.00,   0.00, 1010.5,   78.1, -999.0
20-01-2023, 00:28:31,    272,    0.1,   -1.3,   0.00,   0.00, 1010.5,   77.9, -999.0
20-01-2023, 00:28:41,    268,    0.0,   -1.4,   0.00,   0.00, 1010.4,   77.6, -999.0
20-01-2023, 00:28:51,    268,    0.0,   -1.4,   0.00,   0.00, 1010.4,   77.5, -999.0
20-01-2023, 00:29:01,    268,    0.0,   -1.3,   0.00,   0.00, 1010.4,   77.5, -999.0
20-01-2023, 00:29:11,    268,    0.0,   -1.4,   0.00,   0.00, 1010.4,   77.5, -999.0
20-01-2023, 00:29:21,    263,    0.8,   -1.3,   0.00,   0.00, 1010.5,   77.9, -999.0
20-01-2023, 00:29:31,    287,    0.9,   -1.3,   0.00,   0.00, 1010.5,   77.9, -999.0
20-01-2023, 00:29:41,    286,    0.2,   -1.3,   0.00,   0.00, 1010.5,   77.7, -999.0
20-01-2023, 00:29:51,    286,    0.0,   -1.4,   0.00,   0.00, 1010.4,   77.5, -999.0
20-01-2023, 00:30:01,    267,    1.0,   -1.4,   0.00,   0.00, 1010.5,   77.8, -999.0
20-01-2023, 00:30:11,    253,    3.1,   -1.3,   0.00,   0.00, 1010.5,   77.9, -999.0
20-01-2023, 00:30:21,    281,    2.9,   -1.3,   0.00,   0.00, 1010.5,   77.9, -999.0
20-01-2023, 00:30:31,    289,    2.9,   -1.3,   0.00,   0.00, 1010.5,   77.8, -999.0
20-01-2023, 00:30:41,    267,    2.0,   -1.3,   0.00,   0.00, 1010.5,   77.8, -999.0
20-01-2023, 00:30:51,    244,    0.9,   -1.3,   0.00,   0.00, 1010.5,   77.8, -999.0
20-01-2023, 00:31:01,    245,    1.5,   -1.3,   0.00,   0.00, 1010.5,   77.8, -999.0
20-01-2023, 00:31:11,    296,    0.4,   -1.3,   0.00,   0.00, 1010.5,   77.7, -999.0
20-01-2023, 00:31:21,    290,    0.1,   -1.3,   0.00,   0.00, 1010.5,   77.5, -999.0
20-01-2023, 00:31:31,    288,    0.1,   -1.3,   0.00,   0.00, 1010.5,   77.5, -999.0
20-01-2023, 00:31:41,    288,    0.0,   -1.3,   0.00,   0.00, 1010.4,   77.2, -999.0
20-01-2023, 00:31:51,    298,    0.1,   -1.3,   0.00,   0.00, 1010.5,   77.4, -999.0
20-01-2023, 00:32:01,    298,    0.0,   -1.4,   0.00,   0.00, 1010.4,   77.3, -999.0
20-01-2023, 00:32:11,    298,    0.0,   -1.4,   0.00,   0.00, 1010.4,   77.1, -999.0
20-01-2023, 00:32:20,    257,    0.7,   -1.4,   0.00,   0.00, 1010.5,   77.3, -999.0
20-01-2023, 00:32:31,    274,    1.3,   -1.3,   0.00,   0.00, 1010.6,   77.5, -999.0
20-01-2023, 00:32:41,    278,    0.9,   -1.3,   0.00,   0.00, 1010.6,   77.4, -999.0
20-01-2023, 00:32:51,    266,    0.4,   -1.3,   0.00,   0.00, 1010.5,   77.5, -999.0
20-01-2023, 00:33:00,    262,    0.9,   -1.1,   0.00,   0.00, 1010.5,   77.5, -999.0
20-01-2023, 00:33:11,    260,    0.6,   -1.3,   0.00,   0.00, 1010.5,   77.4, -999.0
20-01-2023, 00:33:21,    299,    0.0,   -1.4,   0.00,   0.00, 1010.4,   77.3, -999.0
20-01-2023, 00:33:30,    298,    0.2,   -1.3,   0.00,   0.00, 1010.5,   77.4, -999.0
20-01-2023, 00:33:40,    298,    0.3,   -1.3,   0.00,   0.00, 1010.5,   77.4, -999.0
20-01-2023, 00:33:51,    276,    0.7,   -1.4,   0.00,   0.00, 1010.5,   77.4, -999.0
20-01-2023, 00:34:01,    239,    0.9,   -1.3,   0.00,   0.00, 1010.6,   77.6, -999.0
20-01-2023, 00:34:10,    266,    0.5,   -1.3,   0.00,   0.00, 1010.5,   77.5, -999.0
20-01-2023, 00:34:20,    255,    0.0,   -1.4,   0.00,   0.00, 1010.4,   77.3, -999.0
20-01-2023, 00:34:31,    267,    1.1,   -1.3,   0.00,   0.00, 1010.6,   77.5, -999.0
20-01-2023, 00:34:40,    258,    1.0,   -1.3,   0.00,   0.00, 1010.6,   77.7, -999.0
20-01-2023, 00:34:50,    254,    2.4,   -1.2,   0.00,   0.00, 1010.6,   77.6, -999.0
20-01-2023, 00:35:00,    302,    2.4,   -1.2,   0.00,   0.00, 1010.6,   77.6, -999.0
20-01-2023, 00:35:11,    302,    0.4,   -1.3,   0.00,   0.00, 1010.5,   77.4, -999.0
20-01-2023, 00:35:20,    291,    0.0,   -1.3,   0.00,   0.00, 1010.4,   77.2, -999.0
20-01-2023, 00:35:30,    273,    0.2,   -1.4,   0.00,   0.00, 1010.5,   77.3, -999.0
20-01-2023, 00:35:40,    278,    0.3,   -1.3,   0.00,   0.00, 1010.4,   77.1, -999.0
20-01-2023, 00:35:50,    246,    1.2,   -1.3,   0.00,   0.00, 1010.6,   77.4, -999.0
20-01-2023, 00:36:00,    250,    2.0,   -1.3,   0.00,   0.00, 1010.6,   77.5, -999.0
20-01-2023, 00:36:10,    251,    0.6,   -1.3,   0.00,   0.00, 1010.6,   77.3, -999.0
20-01-2023, 00:36:20,    302,    0.4,   -1.3,   0.00,   0.00, 1010.5,   77.4, -999.0
20-01-2023, 00:36:30,    294,    0.2,   -1.3,   0.00,   0.00, 1010.5,   77.3, -999.0
20-01-2023, 00:36:40,    294,    0.1,   -1.4,   0.00,   0.00, 1010.5,   77.3, -999.0
20-01-2023, 00:36:50,    294,    0.1,   -1.3,   0.00,   0.00, 1010.5,   77.3, -999.0
20-01-2023, 00:37:00,    294,    0.0,   -1.3,   0.00,   0.00, 1010.4,   77.0, -999.0
20-01-2023, 00:37:10,    293,    0.0,   -1.4,   0.00,   0.00, 1010.4,   77.0, -999.0
20-01-2023, 00:37:20,    270,    0.4,   -1.3,   0.00,   0.00, 1010.5,   77.4, -999.0
20-01-2023, 00:37:30,    269,    0.1,   -1.3,   0.00,   0.00, 1010.5,   77.4, -999.0
20-01-2023, 00:37:40,    269,    0.0,   -1.3,   0.00,   0.00, 1010.5,   77.1, -999.0
20-01-2023, 00:37:50,    249,    1.3,   -1.3,   0.00,   0.00, 1010.6,   77.3, -999.0
20-01-2023, 00:38:00,    282,    3.1,   -1.2,   0.00,   0.00, 1010.6,   77.5, -999.0
20-01-2023, 00:38:10,    269,    1.4,   -1.3,   0.00,   0.00, 1010.6,   77.4, -999.0
20-01-2023, 00:38:20,    306,    0.7,   -1.3,   0.00,   0.00, 1010.5,   77.3, -999.0
20-01-2023, 00:38:30,    306,    0.4,   -1.3,   0.00,   0.00, 1010.6,   77.4, -999.0
20-01-2023, 00:38:40,    267,    0.0,   -1.4,   0.00,   0.00, 1010.4,   77.3, -999.0
20-01-2023, 00:38:50,    263,    1.0,   -1.3,   0.00,   0.00, 1010.6,   77.4, -999.0
20-01-2023, 00:39:00,    306,    1.0,   -1.3,   0.00,   0.00, 1010.6,   77.4, -999.0
20-01-2023, 00:39:10,    287,    0.5,   -1.3,   0.00,   0.00, 1010.5,   77.4, -999.0
20-01-2023, 00:39:20,    267,    0.3,   -1.3,   0.00,   0.00, 1010.6,   77.4, -999.0
20-01-2023, 00:39:30,    270,    0.9,   -1.3,   0.00,   0.00, 1010.6,   77.4, -999.0
20-01-2023, 00:39:40,    282,    1.5,   -1.3,   0.00,   0.00, 1010.6,   77.4, -999.0
20-01-2023, 00:39:50,    274,    0.6,   -1.3,   0.00,   0.00, 1010.6,   77.3, -999.0
20-01-2023, 00:40:00,    273,    0.5,   -1.3,   0.00,   0.00, 1010.6,   77.4, -999.0
20-01-2023, 00:40:10,    260,    1.8,   -1.3,   0.00,   0.00, 1010.6,   77.3, -999.0
20-01-2023, 00:40:20,    282,    1.0,   -1.3,   0.00,   0.00, 1010.6,   77.4, -999.0
20-01-2023, 00:40:30,    281,    1.0,   -1.3,   0.00,   0.00, 1010.6,   77.5, -999.0
20-01-2023, 00:40:40,    281,    0.0,   -1.4,   0.00,   0.00, 1010.4,   77.0, -999.0
20-01-2023, 00:40:50,    262,    0.6,   -1.4,   0.00,   0.00, 1010.5,   77.3, -999.0
20-01-2023, 00:41:00,    261,    0.2,   -1.3,   0.00,   0.00, 1010.5,   77.2, -999.0
20-01-2023, 00:41:10,    262,    0.0,   -1.4,   0.00,   0.00, 1010.4,   77.0, -999.0
20-01-2023, 00:41:20,    262,    0.0,   -1.5,   0.00,   0.00, 1010.4,   76.9, -999.0
20-01-2023, 00:41:29,    262,    0.0,   -1.4,   0.00,   0.00, 1010.4,   77.0, -999.0
20-01-2023, 00:41:40,    261,    0.0,   -1.4,   0.00,   0.00, 1010.4,   77.0, -999.0
20-01-2023, 00:41:50,    261,    0.0,   -1.5,   0.00,   0.00, 1010.4,   77.0, -999.0
20-01-2023, 00:42:00,    280,    0.6,   -1.4,   0.00,   0.00, 1010.5,   77.3, -999.0
20-01-2023, 00:42:10,    270,    1.2,   -1.3,   0.00,   0.00, 1010.6,   77.5, -999.0
20-01-2023, 00:42:20,    270,    1.3,   -1.3,   0.00,   0.00, 1010.6,   77.4, -999.0
20-01-2023, 00:42:30,    282,    1.5,   -1.3,   0.00,   0.00, 1010.6,   77.4, -999.0
20-01-2023, 00:42:39,    304,    1.0,   -1.3,   0.00,   0.00, 1010.6,   77.4, -999.0
20-01-2023, 00:42:50,    262,    1.5,   -1.4,   0.00,   0.00, 1010.6,   77.4, -999.0
20-01-2023, 00:43:00,    277,    2.2,   -1.4,   0.00,   0.00, 1010.6,   77.4, -999.0
20-01-2023, 00:43:09,    273,    0.6,   -1.4,   0.00,   0.00, 1010.6,   77.4, -999.0
20-01-2023, 00:43:19,    282,    1.2,   -1.3,   0.00,   0.00, 1010.6,   77.4, -999.0
20-01-2023, 00:43:30,    282,    0.9,   -1.3,   0.00,   0.00, 1010.6,   77.4, -999.0
20-01-2023, 00:43:40,    280,    2.3,   -1.5,   0.00,   0.00, 1010.6,   77.5, -999.0
20-01-2023, 00:43:49,    268,    1.1,   -1.4,   0.00,   0.00, 1010.5,   77.4, -999.0
20-01-2023, 00:43:59,    270,    1.6,   -1.5,   0.00,   0.00, 1010.6,   77.4, -999.0
20-01-2023, 00:44:10,    263,    0.9,   -1.4,   0.00,   0.00, 1010.6,   77.4, -999.0
20-01-2023, 00:44:19,    264,    2.5,   -1.4,   0.00,   0.00, 1010.6,   77.4, -999.0
20-01-2023, 00:44:29,    266,    1.8,   -1.3,   0.00,   0.00, 1010.5,   77.4, -999.0
20-01-2023, 00:44:39,    262,    2.7,   -1.3,   0.00,   0.00, 1010.6,   77.5, -999.0
20-01-2023, 00:44:50,    274,    2.0,   -1.4,   0.00,   0.00, 1010.6,   77.4, -999.0
20-01-2023, 00:44:59,    269,    1.6,   -1.4,   0.00,   0.00, 1010.6,   77.4, -999.0
20-01-2023, 00:45:09,    274,    1.1,   -1.4,   0.00,   0.00, 1010.5,   77.3, -999.0
20-01-2023, 00:45:20,    288,    1.5,   -1.4,   0.00,   0.00, 1010.6,   77.3, -999.0
20-01-2023, 00:45:29,    288,    0.1,   -1.4,   0.00,   0.00, 1010.5,   77.1, -999.0
20-01-2023, 00:45:39,    302,    0.3,   -1.4,   0.00,   0.00, 1010.5,   77.1, -999.0
20-01-2023, 00:45:49,    284,    0.8,   -1.4,   0.00,   0.00, 1010.6,   77.4, -999.0
20-01-2023, 00:45:59,    279,    0.2,   -1.4,   0.00,   0.00, 1010.5,   77.2, -999.0
20-01-2023, 00:46:09,    298,    1.1,   -1.4,   0.00,   0.00, 1010.6,   77.4, -999.0
20-01-2023, 00:46:19,    274,    3.1,   -1.4,   0.00,   0.00, 1010.6,   77.5, -999.0
20-01-2023, 00:46:29,    256,    3.1,   -1.4,   0.00,   0.00, 1010.5,   77.4, -999.0
20-01-2023, 00:46:39,    289,    2.2,   -1.4,   0.00,   0.00, 1010.6,   77.4, -999.0
20-01-2023, 00:46:49,    277,    1.0,   -1.4,   0.00,   0.00, 1010.5,   77.4, -999.0